Weather reports worldwide

Advertisment
Geisenheim, Germany (10628): temperature & dewpoint: 20.09.2018 05:00:00 - 26.09.2018 05:00:00 (CEST)Geisenheim, Germany (10628): temperature 5cm & temperature -5cm: 20.09.2018 05:00:00 - 26.09.2018 05:00:00 (CEST)Geisenheim, Germany (10628): temperature -20cm & temperature -100cm: 20.09.2018 05:00:00 - 26.09.2018 05:00:00 (CEST)Geisenheim, Germany (10628): wind speed & gusts: 20.09.2018 05:00:00 - 26.09.2018 05:00:00 (CEST)Geisenheim, Germany (10628): wind direction: 20.09.2018 05:00:00 - 26.09.2018 05:00:00 (CEST)Geisenheim, Germany (10628): reduced air pressure: 20.09.2018 05:00:00 - 26.09.2018 05:00:00 (CEST)Geisenheim, Germany (10628): visibility: 20.09.2018 05:00:00 - 26.09.2018 05:00:00 (CEST)Geisenheim, Germany (10628): sunshine duration: 20.09.2018 05:00:00 - 26.09.2018 05:00:00 (CEST)Geisenheim, Germany (10628): precipitation: 20.09.2018 05:00:00 - 26.09.2018 05:00:00 (CEST)
Date & Time tt [°C] td [°C] tt 5cm [°C] tt -5cm [°C] tt -20cm [°C] tt -100cm [°C] ff [km/h] ff [kn] fx [km/h] fx [kn] dd ppp [hPa] vv [km] sd [min] rr [mm]
26.09.2018 05:00:00 4,7 2,9 3,0 8,8 13,6 18,9 6 3 8 5 N 1036,4 56 0 0,0
26.09.2018 04:00:00 5,0 2,8 2,9 9,3 13,9 18,9 3 1 9 5 N 1037,0 58 0 0,0
26.09.2018 03:00:00 5,2 3,1 3,7 9,7 14,2 19,0 6 3 9 5 NNE 1036,9 70 0 0,0
26.09.2018 02:00:00 5,6 3,4 4,0 10,3 14,5 19,0 6 3 10 5 NNE 1037,7 57 0 0,0
26.09.2018 01:00:00 6,5 3,6 5,0 10,8 14,8 19,0 8 4 10 5 N 1038,0 61 0 0,0
26.09.2018 00:00:00 7,1 3,9 5,5 11,4 15,1 19,0 6 4 9 5 NNE 1038,3 61 0 0,0
25.09.2018 23:00:00 7,7 3,8 6,0 12,1 15,4 19,1 8 5 10 6 N 1038,7 57 0 0,0
25.09.2018 22:00:00 9,1 4,1 5,5 13,0 15,6 19,1 5 3 8 4 NE 1038,7 50 0 0,0
25.09.2018 21:00:00 9,8 4,1 6,0 14,1 15,7 19,1 4 2 12 7 NE 1038,3 55 0 0,0
25.09.2018 20:00:00 11,2 3,6 9,0 15,4 15,8 19,2 8 5 11 6 NNE 1037,9 63 4 0,0
25.09.2018 19:00:00 13,8 3,2 12,2 16,7 15,7 19,2 5 3 16 8 ENE 1037,5 69 60 0,0
25.09.2018 18:00:00 15,0 2,0 15,4 17,8 15,4 19,2 11 6 22 12 E 1037,6 61 60 0,0
25.09.2018 17:00:00 15,4 1,4 17,0 18,4 15,1 19,2 11 6 23 13 ESE 1037,9 61 60 0,0
25.09.2018 16:00:00 15,6 2,1 18,5 18,4 14,6 19,3 11 6 25 13 ESE 1038,5 75 60 0,0
25.09.2018 15:00:00 15,3 2,4 18,2 17,9 14,1 19,3 12 7 24 13 E 1038,9 58 60 0,0
25.09.2018 14:00:00 14,5 2,5 17,9 17,1 13,4 19,3 9 5 22 12 E 1039,3 61 60 0,0
25.09.2018 13:00:00 13,5 3,2 16,6 16,5 12,8 19,3 9 5 18 10 E 1039,7 53 56 0,0
25.09.2018 12:00:00 13,0 5,5 15,5 14,8 12,2 19,4 3 2 12 7 S 1040,0 45 60 0,0
25.09.2018 11:00:00 11,4 5,4 13,5 11,4 12,0 19,4 3 2 12 7 S 1040,0 38 - 0,0
25.09.2018 10:00:00 9,2 5,7 10,9 8,3 11,9 19,4 6 3 10 5 SW 1039,7 35 - 0,0
25.09.2018 09:00:00 7,4 5,3 7,8 6,7 12,1 19,4 5 3 8 4 WSW 1039,0 18 - 0,0
25.09.2018 08:00:00 5,9 4,5 4,2 6,2 12,4 19,5 5 3 15 8 W 1038,8 25 - 0,0
25.09.2018 07:00:00 5,8 4,3 3,8 6,5 12,6 19,5 9 5 13 7 NNE 1038,7 23 - 0,0
25.09.2018 06:00:00 5,9 4,7 3,6 6,7 12,9 19,5 4 2 11 6 N 1038,4 24 - 0,0
25.09.2018 05:00:00 5,8 4,6 4,5 7,1 13,2 19,5 11 6 13 7 N 1038,2 17 - 0,0
25.09.2018 04:00:00 6,0 4,9 4,4 7,4 13,5 19,6 4 2 19 10 SSW 1038,0 25 - 0,0
25.09.2018 03:00:00 5,7 4,6 4,5 7,8 13,8 19,6 9 5 15 8 N 1038,1 34 - 0,0
25.09.2018 02:00:00 6,5 5,3 5,3 8,1 14,2 19,6 11 6 13 7 NNW 1037,9 42 - 0,0
25.09.2018 01:00:00 7,9 5,4 5,2 8,5 14,5 19,6 5 3 9 5 W 1037,6 65 - 0,0
25.09.2018 00:00:00 7,9 5,8 5,2 9,0 14,9 19,7 4 2 12 6 S 1037,1 65 - 0,0
24.09.2018 23:00:00 8,4 5,7 6,1 9,6 15,2 19,7 9 5 20 11 NNW 1036,6 70 - 0,0
24.09.2018 22:00:00 8,5 5,8 7,0 10,2 15,6 19,7 14 8 18 10 NNW 1036,1 60 - 0,0
24.09.2018 21:00:00 9,1 5,7 7,2 11,1 15,9 19,7 14 8 18 10 NNW 1035,7 41 - 0,0
24.09.2018 20:00:00 9,9 6,3 7,5 12,3 16,2 19,8 7 4 26 14 NNW 1035,0 70 - 0,3
24.09.2018 19:00:00 10,9 6,5 9,4 13,9 16,3 19,8 24 13 37 20 NNW 1034,4 7 - 0,0
24.09.2018 18:00:00 13,5 5,3 13,4 15,2 16,2 19,8 15 8 26 14 NNW 1033,6 70 - 0,0
24.09.2018 17:00:00 15,4 4,3 16,1 17,1 16,0 19,8 12 6 28 15 WNW 1033,4 70 - 0,0
24.09.2018 16:00:00 15,1 4,7 16,9 17,5 15,7 19,9 17 9 36 19 W 1033,6 42 - 0,0
24.09.2018 15:00:00 13,6 3,9 14,0 16,2 15,4 19,9 27 15 41 22 NNW 1034,2 52 - 0,0
24.09.2018 14:00:00 14,7 2,8 16,2 17,7 14,9 19,9 13 7 31 17 NNW 1033,7 70 - 0,0
24.09.2018 13:00:00 14,1 3,5 15,5 16,7 14,4 19,9 14 8 30 16 NW 1034,0 70 - 0,0
24.09.2018 12:00:00 14,1 4,9 17,2 15,2 14,0 19,9 14 8 27 15 NNW 1033,9 36 - 0,0
24.09.2018 11:00:00 12,8 5,6 14,9 12,7 13,8 20,0 16 8 22 12 W 1033,8 67 - 0,0
24.09.2018 10:00:00 11,2 5,2 12,8 10,1 13,8 20,0 10 5 21 11 W 1033,4 61 - 0,0
24.09.2018 09:00:00 10,1 5,4 10,7 8,9 14,0 20,0 6 3 10 5 W 1032,5 64 - 0,0
24.09.2018 08:00:00 7,5 5,9 6,0 8,6 14,2 20,0 6 3 14 7 W 1031,6 37 - 0,0
24.09.2018 07:00:00 8,4 6,2 7,0 9,0 14,4 20,0 8 5 17 9 W 1030,5 47 - 0,0
24.09.2018 06:00:00 9,4 6,5 8,3 9,2 14,7 20,0 8 5 20 11 W 1029,6 38 - 0,0
24.09.2018 05:00:00 9,3 6,0 8,1 9,4 15,0 20,1 12 6 22 12 NW 1028,9 34 - 0,0
24.09.2018 04:00:00 8,9 6,2 6,8 9,6 15,3 20,1 5 3 16 8 W 1027,8 36 - 0,0
24.09.2018 03:00:00 9,3 6,4 7,7 10,1 15,5 20,1 6 3 23 12 WNW 1027,1 49 - 0,0
24.09.2018 02:00:00 9,7 6,5 8,8 10,6 15,8 20,1 17 9 36 19 NW 1025,7 62 - 0,0
24.09.2018 01:00:00 9,8 6,5 9,2 10,5 16,2 20,1 19 11 32 18 NW 1024,0 70 - 0,0
24.09.2018 00:00:00 9,2 6,2 8,1 10,8 16,6 20,2 14 8 25 14 NW 1022,6 70 - 0,0
23.09.2018 23:00:00 9,8 6,0 9,4 11,4 17,0 20,2 15 8 41 22 NNW 1021,1 70 - 0,0
23.09.2018 22:00:00 10,2 6,4 9,3 12,4 17,3 20,2 24 13 48 26 NNW 1018,4 70 - 0,0
23.09.2018 21:00:00 11,0 8,0 10,1 13,2 17,6 20,2 26 14 40 21 NW 1016,2 70 - 0,0
23.09.2018 20:00:00 11,6 8,7 10,6 14,2 17,9 20,2 26 14 48 26 NNW 1013,5 62 - 0,0
23.09.2018 19:00:00 12,5 9,7 11,7 15,1 18,1 20,2 21 12 45 24 NW 1010,1 70 - 0,2
23.09.2018 18:00:00 13,1 10,4 12,7 16,5 18,2 20,3 15 8 53 28 WNW 1008,2 21 - 0,0
23.09.2018 17:00:00 13,6 11,7 13,9 17,3 18,1 20,3 14 8 84 45 WNW 1005,2 41 - 14,0
23.09.2018 16:00:00 22,0 16,9 19,8 19,8 17,8 20,3 33 18 57 31 WSW 1002,7 70 - 0,0
23.09.2018 15:00:00 21,4 18,3 20,6 19,5 17,4 20,3 21 11 40 22 SW 1004,2 70 - 0,0
23.09.2018 14:00:00 20,4 18,1 19,9 19,0 17,2 20,3 21 11 33 18 SSW 1006,2 70 - 0,1
23.09.2018 13:00:00 15,8 15,1 16,5 17,2 17,1 20,3 4 2 16 9 N 1008,5 11 - 0,0
23.09.2018 12:00:00 14,5 13,6 15,0 16,2 17,0 20,3 4 2 9 5 ENE 1009,9 12 - 0,0
23.09.2018 11:00:00 13,3 12,6 13,5 15,2 17,0 20,4 6 3 12 6 ENE 1011,0 3,8 - 0,1
23.09.2018 10:00:00 13,1 12,5 13,2 14,7 17,1 20,4 3 2 12 6 E 1011,4 8 - 0,0
23.09.2018 09:00:00 12,4 11,9 12,5 14,2 17,2 20,4 7 4 15 8 ENE 1011,9 9 - 0,4
23.09.2018 08:00:00 11,9 11,5 12,1 14,0 17,3 20,4 8 4 15 8 E 1012,6 2,3 - 1,6
23.09.2018 07:00:00 11,8 11,4 11,8 14,1 17,5 20,4 9 5 15 8 E 1013,4 1,6 - 1,6
23.09.2018 06:00:00 11,5 11,2 11,6 14,3 17,6 20,4 6 4 14 7 E 1014,4 1,3 - 1,9
23.09.2018 05:00:00 11,3 10,9 11,3 14,5 17,7 20,5 9 5 15 8 E 1015,6 1,8 - 0,6
23.09.2018 04:00:00 11,3 10,7 11,2 14,7 17,9 20,5 9 5 15 8 E 1016,9 2,8 - 0,3
23.09.2018 03:00:00 11,4 10,5 11,2 14,9 18,0 20,5 6 4 11 6 ENE 1018,2 13 - 0,2
23.09.2018 02:00:00 11,6 10,5 11,3 15,1 18,2 20,5 4 2 7 4 ENE 1018,7 9 - 0,3
23.09.2018 01:00:00 11,7 10,5 11,4 15,2 18,3 20,5 2 1 6 4 NE 1019,5 59 - 0,1
23.09.2018 00:00:00 11,7 10,1 11,2 15,4 18,5 20,5 5 3 11 6 N 1020,0 19 - 0,0
22.09.2018 23:00:00 11,8 10,4 11,3 15,6 18,7 20,5 4 2 6 3 NNE 1020,2 37 - 0,1
22.09.2018 22:00:00 12,0 10,0 11,3 15,9 18,9 20,6 2 1 8 5 W 1020,5 51 - 0,0
22.09.2018 21:00:00 12,1 9,5 11,1 16,3 19,1 20,6 4 2 18 10 N 1020,1 62 - 0,0
22.09.2018 20:00:00 12,3 9,4 11,0 17,0 19,2 20,6 14 8 24 13 NW 1020,6 23 - 0,6
22.09.2018 19:00:00 15,4 6,0 14,8 18,1 19,2 20,6 20 11 37 20 WNW 1020,5 66 - 0,0
22.09.2018 18:00:00 16,7 5,0 16,7 18,8 19,2 20,6 15 8 31 17 W 1020,0 70 - 0,0
22.09.2018 17:00:00 17,4 5,2 17,7 19,8 19,1 20,6 15 8 27 15 W 1020,4 70 - 0,0
22.09.2018 16:00:00 17,7 4,3 18,4 20,3 18,8 20,6 19 10 34 19 W 1020,8 70 - 0,0
22.09.2018 15:00:00 17,7 5,5 19,7 20,9 18,4 20,6 16 9 29 16 WSW 1020,9 70 - 0,0
22.09.2018 14:00:00 17,4 6,0 19,5 20,8 18,0 20,7 12 6 26 14 W 1021,3 70 - 0,0
22.09.2018 13:00:00 16,6 7,2 20,1 20,3 17,6 20,7 16 9 29 16 SW 1022,1 59 - 0,0
22.09.2018 12:00:00 15,9 6,9 21,4 18,1 17,3 20,7 15 8 22 12 WSW 1022,7 49 - 0,0
22.09.2018 11:00:00 14,0 6,9 17,1 15,6 17,3 20,7 16 9 26 14 WSW 1023,4 57 - 0,0
22.09.2018 10:00:00 12,2 6,3 13,3 14,2 17,3 20,7 15 8 27 14 WSW 1023,4 70 - 0,0
22.09.2018 09:00:00 11,8 6,2 11,9 13,3 17,5 20,7 18 10 25 13 WSW 1023,4 65 - 0,0
22.09.2018 08:00:00 10,8 6,2 10,0 12,8 17,7 20,7 11 6 15 8 WSW 1023,1 64 - 0,0
22.09.2018 07:00:00 10,3 5,5 9,3 12,9 17,9 20,7 9 5 16 9 W 1022,4 66 - 0,0
22.09.2018 06:00:00 10,4 5,5 8,5 13,1 18,1 20,7 7 4 16 9 SW 1022,1 70 - 0,0
22.09.2018 05:00:00 10,8 5,3 9,7 13,2 18,4 20,7 9 5 14 8 W 1021,7 70 - 0,0
22.09.2018 04:00:00 10,5 4,9 6,9 13,6 18,7 20,7 3 1 12 7 S 1021,6 70 - 0,0
22.09.2018 03:00:00 12,7 4,4 10,8 14,2 18,9 20,7 11 6 30 16 WSW 1021,0 70 - 0,0
22.09.2018 02:00:00 13,2 4,0 11,5 14,5 19,2 20,7 18 10 49 26 W 1020,1 70 - 0,0
22.09.2018 01:00:00 13,6 3,7 12,3 14,8 19,4 20,7 22 12 43 23 W 1019,5 70 - 0,0
22.09.2018 00:00:00 14,1 4,1 12,9 15,1 19,7 20,7 22 12 36 19 W 1019,2 70 - 0,0
21.09.2018 23:00:00 13,9 4,2 12,5 15,5 20,0 20,7 15 8 28 15 W 1018,7 70 - 0,0
21.09.2018 22:00:00 13,6 5,2 12,4 15,8 20,2 20,7 16 9 31 17 W 1017,9 70 - 0,0
21.09.2018 21:00:00 13,5 5,1 11,0 16,8 20,5 20,7 8 4 14 7 W 1016,9 70 - 0,0
21.09.2018 20:00:00 15,0 5,3 14,0 17,6 20,7 20,7 11 6 29 16 W 1015,6 70 - 0,0
21.09.2018 19:00:00 15,5 8,7 14,9 18,6 20,8 20,7 18 10 46 25 WNW 1014,2 70 - 0,0
21.09.2018 18:00:00 16,5 9,5 16,9 19,8 20,9 20,7 21 11 41 22 WNW 1013,2 70 - 0,0
21.09.2018 17:00:00 16,1 10,7 15,9 18,9 21,0 20,7 13 7 29 16 W 1012,2 70 - 0,0
21.09.2018 16:00:00 14,5 10,8 13,2 19,0 21,1 20,7 16 9 58 31 NW 1011,2 70 - 0,1
21.09.2018 15:00:00 15,2 12,0 13,9 20,8 21,1 20,7 40 22 63 34 NW 1010,6 19 - 0,5
21.09.2018 14:00:00 22,7 12,5 22,8 21,9 20,9 20,7 27 14 53 28 WSW 1008,8 70 - 0,0
21.09.2018 13:00:00 23,2 11,0 23,4 21,8 20,8 20,6 28 15 45 24 WSW 1008,1 55 - 0,0
21.09.2018 12:00:00 23,1 11,0 23,9 21,2 20,7 20,6 17 9 35 19 WSW 1008,6 43 - 0,0
21.09.2018 11:00:00 19,9 14,0 20,9 20,2 20,6 20,6 0 0 7 4 N 1008,9 30 - 0,0
21.09.2018 10:00:00 17,3 14,2 18,0 19,0 20,7 20,6 2 1 4 2 W 1009,4 19 - 0,0
21.09.2018 09:00:00 16,3 13,7 16,6 18,2 20,9 20,6 4 2 10 5 WSW 1009,6 19 - 0,0
21.09.2018 08:00:00 14,9 13,1 13,9 17,6 21,1 20,6 3 2 5 3 N 1009,6 18 - 0,0
21.09.2018 07:00:00 14,5 12,8 13,1 17,8 21,3 20,6 3 2 5 3 N 1010,1 21 - 0,0
21.09.2018 06:00:00 14,1 12,2 13,1 18,0 21,6 20,6 4 2 7 4 SE 1010,5 23 - 0,0
21.09.2018 05:00:00 14,9 12,4 12,6 18,3 21,9 20,6 4 2 7 4 ENE 1011,1 27 - 0,0
21.09.2018 04:00:00 15,5 12,8 13,1 18,6 22,2 20,6 3 2 9 5 NW 1011,8 31 - 0,0
21.09.2018 03:00:00 15,4 12,7 13,1 19,1 22,5 20,6 5 3 9 5 N 1012,2 30 - 0,0
21.09.2018 02:00:00 16,3 12,5 13,9 19,7 22,8 20,6 5 3 8 5 NE 1012,6 35 - 0,0
21.09.2018 01:00:00 16,8 12,4 14,9 20,2 23,2 20,6 6 3 9 5 NNW 1013,0 37 - 0,0
21.09.2018 00:00:00 17,3 12,1 15,7 20,9 23,5 20,6 9 5 11 6 NNW 1013,6 42 - 0,0
20.09.2018 23:00:00 18,2 11,8 16,6 21,7 23,8 20,5 10 5 11 6 N 1014,0 48 - 0,0
20.09.2018 22:00:00 19,2 11,7 17,6 22,6 24,1 20,5 9 5 11 6 N 1014,3 49 - 0,0
20.09.2018 21:00:00 20,6 11,6 18,7 23,8 24,4 20,5 6 4 9 5 N 1014,7 52 - 0,0
20.09.2018 20:00:00 23,0 11,0 19,6 25,5 24,4 20,5 7 4 20 11 WNW 1014,7 55 - 0,0
20.09.2018 19:00:00 26,4 10,9 25,1 27,6 24,3 20,5 12 7 23 12 SW 1014,7 63 - 0,0
20.09.2018 18:00:00 27,6 11,8 28,2 29,4 24,0 20,5 15 8 24 13 SSW 1015,2 54 - 0,0
20.09.2018 17:00:00 28,2 10,7 30,8 30,1 23,5 20,5 12 7 26 14 SW 1015,7 46 - 0,0
20.09.2018 16:00:00 28,0 10,5 31,7 29,9 22,9 20,5 15 8 31 17 SSW 1016,4 48 - 0,0
20.09.2018 15:00:00 27,9 9,9 32,4 29,4 22,3 20,5 13 7 32 18 SW 1017,0 48 - 0,0
20.09.2018 14:00:00 26,8 9,5 30,5 28,2 21,6 20,5 16 9 29 15 WSW 1017,7 37 - 0,0
20.09.2018 13:00:00 26,0 13,1 31,0 26,1 21,1 20,5 11 6 26 14 SW 1018,4 43 - 0,0
20.09.2018 12:00:00 24,3 12,8 28,8 23,5 20,8 20,5 17 9 25 14 SSW 1019,1 37 - 0,0
20.09.2018 11:00:00 21,6 13,7 25,8 20,7 20,7 20,4 6 3 11 6 SW 1019,8 37 - 0,0
20.09.2018 10:00:00 18,4 13,0 21,4 18,6 20,8 20,4 5 3 8 4 WSW 1020,0 29 - 0,0
20.09.2018 09:00:00 16,5 13,2 18,1 17,4 21,0 20,4 3 1 5 3 SW 1020,1 25 - 0,0
20.09.2018 08:00:00 14,6 13,0 12,2 17,4 21,3 20,4 3 1 7 4 NNE 1020,1 23 - 0,0
20.09.2018 07:00:00 15,3 13,7 12,2 17,9 21,6 20,4 2 1 10 5 SSW 1019,8 22 - 0,0
20.09.2018 06:00:00 15,7 13,7 13,3 18,3 21,8 20,4 4 2 8 4 W 1019,7 25 - 0,0
20.09.2018 05:00:00 16,0 13,5 13,9 18,8 22,1 20,4 4 2 8 4 NW 1019,5 27 - 0,0

tt = temperature
td = dewpoint
tt 5cm = temperature 5cm
tt -5cm = temperature -5cm
tt -20cm = temperature -20cm
tt -100cm = temperature -100cm
ff = wind speed
fx = gusts
dd = wind direction
ppp = reduced air pressure
vv = visibility
sd = sunshine duration
rr = precipitation

Next stations